Weather reports worldwide

Advertisment
Bologna/Borgo Panigale, Italy (16140): temperature & dewpoint: 16.09.2018 23:00:00 - 22.09.2018 23:00:00 (CEST)Bologna/Borgo Panigale, Italy (16140): wind speed: 16.09.2018 23:00:00 - 22.09.2018 23:00:00 (CEST)Bologna/Borgo Panigale, Italy (16140): wind direction: 16.09.2018 23:00:00 - 22.09.2018 23:00:00 (CEST)Bologna/Borgo Panigale, Italy (16140): reduced air pressure: 16.09.2018 23:00:00 - 22.09.2018 23:00:00 (CEST)Bologna/Borgo Panigale, Italy (16140): visibility: 16.09.2018 23:00:00 - 22.09.2018 23:00:00 (CEST)Bologna/Borgo Panigale, Italy (16140): precipitation: 16.09.2018 23:00:00 - 22.09.2018 23:00:00 (CEST)
Date & Time tt [°C] td [°C] ff [km/h] ff [kn] dd ppp [hPa] vv [km] rr [mm]
22.09.2018 23:00:00 22,2 18,9 11 6 N 1017,7 10 0,0
22.09.2018 22:00:00 23,0 17,0 8 4 ESE - 10 -
22.09.2018 21:00:00 25,0 17,0 13 7 E - 10 -
22.09.2018 20:00:00 26,2 16,1 8 4 NE 1016,4 10 -
22.09.2018 19:00:00 28,0 15,0 9 5 NE - 10 -
22.09.2018 18:00:00 29,0 15,0 9 5 NNE - 10 -
22.09.2018 17:00:00 29,4 15,4 9 5 NE 1015,4 10 0,0
22.09.2018 16:00:00 29,0 15,0 9 5 N - 10 -
22.09.2018 15:00:00 29,0 16,0 8 4 N - 10 -
22.09.2018 14:00:00 28,7 15,3 8 4 N 1016,2 10 -
22.09.2018 13:00:00 28,0 15,0 9 5 N - 10 -
22.09.2018 12:00:00 27,0 15,0 4 2 - - 10 -
22.09.2018 11:00:00 26,5 15,2 5 3 N 1016,4 10 0,0
22.09.2018 10:00:00 26,0 15,0 8 4 SW - 10 -
22.09.2018 09:00:00 23,0 15,0 15 8 SSW - 10 -
22.09.2018 08:00:00 20,4 13,1 9 5 SSW 1015,2 10 -
22.09.2018 07:00:00 21,0 15,0 8 4 SW - 10 -
22.09.2018 06:00:00 21,0 15,0 13 7 SSW - 10 -
22.09.2018 05:00:00 21,6 14,7 13 7 SSW 1013,8 20 0,0
22.09.2018 04:00:00 22,0 15,0 13 7 S - 10 -
22.09.2018 03:00:00 22,0 15,0 13 7 SSW - 10 -
22.09.2018 02:00:00 21,7 14,5 15 8 SSW 1014,2 10 -
22.09.2018 01:00:00 21,0 16,0 9 5 SSW - 10 -
22.09.2018 00:00:00 23,0 16,0 13 7 SSW - 10 -
21.09.2018 23:00:00 23,0 16,6 8 4 SSW 1014,3 10 0,0
21.09.2018 22:00:00 22,0 16,0 4 2 ESE - 10 -
21.09.2018 21:00:00 24,0 16,0 13 7 ESE - 10 -
21.09.2018 20:00:00 26,5 16,2 5 3 ENE 1013,5 10 -
21.09.2018 19:00:00 29,0 16,0 8 4 NE - 10 -
21.09.2018 18:00:00 30,0 16,0 8 4 NE - 10 -
21.09.2018 17:00:00 30,2 16,2 8 4 - 1014,0 10 0,0
21.09.2018 16:00:00 30,0 16,0 9 5 NNE - 10 -
21.09.2018 15:00:00 30,0 15,0 8 4 - - 10 -
21.09.2018 14:00:00 29,0 14,9 8 4 - 1015,3 10 -
21.09.2018 13:00:00 29,0 15,0 4 2 - - 10 -
21.09.2018 12:00:00 27,0 16,0 4 2 - - 10 -
21.09.2018 11:00:00 25,7 16,0 4 2 - 1016,6 10 0,0
21.09.2018 10:00:00 23,0 16,0 5 3 NW - 10 -
21.09.2018 09:00:00 20,0 16,0 9 5 SW - 10 -
21.09.2018 08:00:00 18,5 15,3 8 4 WSW 1016,8 10 -
21.09.2018 07:00:00 18,0 15,0 9 5 SW - 10 -
21.09.2018 06:00:00 18,0 15,0 9 5 SSW - 10 -
21.09.2018 05:00:00 18,5 15,6 9 5 SW 1016,7 10 0,0
21.09.2018 04:00:00 19,0 16,0 9 5 SSW - 10 -
21.09.2018 03:00:00 19,0 16,0 8 4 SW - 10 -
21.09.2018 02:00:00 19,8 16,0 8 4 SW 1017,2 10 -
21.09.2018 01:00:00 21,0 16,0 11 6 SSW - 10 -
21.09.2018 00:00:00 21,0 16,0 9 5 SW - 10 -
20.09.2018 23:00:00 21,8 16,5 4 2 - 1017,5 10 0,0
20.09.2018 22:00:00 23,0 17,0 8 4 SW - 10 -
20.09.2018 21:00:00 23,0 16,0 2 1 SE - 10 -
20.09.2018 20:00:00 23,4 16,3 4 2 NE 1017,0 10 -
20.09.2018 19:00:00 28,0 16,0 5 3 N - 10 -
20.09.2018 18:00:00 29,0 16,0 8 4 NNE - 10 -
20.09.2018 17:00:00 29,1 15,8 5 3 - 1017,3 10 0,0
20.09.2018 16:00:00 28,0 16,0 8 4 NE - 10 -
20.09.2018 15:00:00 28,0 16,0 8 4 N - 10 -
20.09.2018 14:00:00 27,9 17,8 8 4 NNE 1019,0 10 -
20.09.2018 13:00:00 27,0 18,0 8 4 NNW - 8 -
20.09.2018 12:00:00 26,0 18,0 9 5 NW - 8 -
20.09.2018 11:00:00 24,7 17,3 9 5 WNW 1020,5 10 0,0
20.09.2018 10:00:00 22,0 17,0 5 3 WNW - 10 -
20.09.2018 09:00:00 21,0 17,0 5 3 SW - 10 -
20.09.2018 08:00:00 18,9 16,6 8 4 SSW 1020,0 10 -
20.09.2018 07:00:00 19,0 17,0 9 5 SW - 10 -
20.09.2018 06:00:00 18,0 17,0 8 4 SW - 10 -
20.09.2018 05:00:00 18,5 16,7 5 3 WSW 1019,6 10 0,0
20.09.2018 04:00:00 19,0 17,0 9 5 SW - 10 -
20.09.2018 03:00:00 20,0 17,0 9 5 SSW - 10 -
20.09.2018 02:00:00 20,0 17,1 11 6 SSW 1019,8 10 -
20.09.2018 01:00:00 21,0 17,0 13 7 SSW - 10 -
20.09.2018 00:00:00 22,0 18,0 9 5 SSW - 10 -
19.09.2018 23:00:00 21,5 17,6 4 2 SSW 1020,1 10 0,0
19.09.2018 22:00:00 22,0 18,0 8 4 E - 10 -
19.09.2018 21:00:00 22,0 17,0 5 3 ENE - 10 -
19.09.2018 20:00:00 24,5 16,9 4 2 NE 1018,8 10 -
19.09.2018 19:00:00 27,0 17,0 4 2 - - 10 -
19.09.2018 18:00:00 28,0 17,0 5 3 NNE - 10 -
19.09.2018 17:00:00 28,2 17,2 8 4 NNE 1018,5 10 0,0
19.09.2018 16:00:00 28,0 17,0 8 4 NNW - 10 -
19.09.2018 15:00:00 28,0 17,0 8 4 NNE - 10 -
19.09.2018 14:00:00 27,4 17,8 5 3 N 1019,8 10 -
19.09.2018 13:00:00 26,0 17,0 5 3 NNW - 10 -
19.09.2018 12:00:00 25,0 17,0 8 4 NNW - 10 -
19.09.2018 11:00:00 24,9 17,2 5 3 NW 1020,6 10 0,0
19.09.2018 10:00:00 23,0 17,0 4 2 - - 10 -
19.09.2018 09:00:00 21,0 17,0 9 5 SSW - 10 -
19.09.2018 08:00:00 19,4 16,6 9 5 SSW 1020,0 10 -
19.09.2018 07:00:00 19,0 16,0 11 6 SSW - 10 -
19.09.2018 06:00:00 19,0 17,0 9 5 SW - 10 -
19.09.2018 05:00:00 18,8 16,7 9 5 SSW 1019,2 10 0,0
19.09.2018 04:00:00 19,0 17,0 9 5 SSW - 10 -
19.09.2018 03:00:00 20,0 17,0 13 7 SSW - 10 -
19.09.2018 02:00:00 19,5 17,4 9 5 SSW 1019,5 10 -
19.09.2018 01:00:00 20,0 18,0 9 5 SSW - 10 -
19.09.2018 00:00:00 21,0 18,0 5 3 SSW - 10 -
18.09.2018 23:00:00 21,0 18,0 11 6 SSW 1019,3 10 0,0
18.09.2018 22:00:00 22,0 18,0 8 4 S - 10 -
18.09.2018 21:00:00 23,0 17,0 9 5 S - 10 -
18.09.2018 20:00:00 23,4 15,2 5 3 S 1018,2 10 -
18.09.2018 19:00:00 24,0 17,0 11 6 SSE - 10 -
18.09.2018 18:00:00 27,0 19,0 5 3 SE - 10 -
18.09.2018 17:00:00 27,1 18,1 2 1 - 1018,2 10 0,0
18.09.2018 16:00:00 27,0 18,0 8 4 ENE - 10 -
18.09.2018 15:00:00 27,0 17,0 9 5 ENE - 10 -
18.09.2018 14:00:00 26,1 17,8 9 5 - 1019,4 8 -
18.09.2018 13:00:00 25,0 19,0 9 5 N - 8 -
18.09.2018 12:00:00 25,0 19,0 4 2 - - 8 -
18.09.2018 11:00:00 23,5 18,6 4 2 - 1020,5 8 0,0
18.09.2018 10:00:00 22,0 18,0 4 2 - - 10 -
18.09.2018 09:00:00 21,0 18,0 2 1 - - 10 -
18.09.2018 08:00:00 19,8 18,0 8 4 S 1020,1 8 -
18.09.2018 07:00:00 19,0 18,0 8 4 S - 10 -
18.09.2018 06:00:00 19,0 18,0 4 2 SW - 10 -
18.09.2018 05:00:00 19,1 18,3 2 1 - 1019,7 10 0,0
18.09.2018 04:00:00 20,0 19,0 5 3 S - 10 -
18.09.2018 03:00:00 20,0 19,0 5 3 SW - 10 -
18.09.2018 02:00:00 20,6 18,8 5 3 SW 1020,0 10 -
18.09.2018 01:00:00 21,0 19,0 5 3 NNE - 10 -
18.09.2018 00:00:00 21,0 20,0 2 1 - - 10 -
17.09.2018 23:00:00 21,4 19,7 2 1 - 1019,8 10 0,0
17.09.2018 22:00:00 22,0 20,0 5 3 SSW - 10 -
17.09.2018 21:00:00 22,0 20,0 2 1 - - 10 -
17.09.2018 20:00:00 22,1 19,4 2 1 - 1019,8 10 -
17.09.2018 19:00:00 - - - - - - - -
17.09.2018 18:00:00 22,0 18,0 18 10 ENE - 8 -
17.09.2018 17:00:00 25,9 19,6 5 3 SW 1019,2 10 0,0
17.09.2018 16:00:00 28,0 19,0 5 3 NNE - 8 -
17.09.2018 15:00:00 28,0 19,0 8 4 - - 8 -
17.09.2018 14:00:00 27,0 19,0 9 5 W - 8 -
17.09.2018 13:00:00 26,0 19,0 5 3 - - 8 -
17.09.2018 12:00:00 26,0 19,0 8 4 - - 8 -
17.09.2018 11:00:00 24,3 18,8 5 3 - 1022,1 8 0,0
17.09.2018 10:00:00 - - - - - - - -
17.09.2018 09:00:00 22,0 18,0 5 3 SSW - 10 -
17.09.2018 08:00:00 20,7 17,4 8 4 SSW 1021,0 10 -
17.09.2018 07:00:00 21,0 17,0 4 2 SW - 10 -
17.09.2018 06:00:00 21,0 18,0 8 4 SSW - 10 -
17.09.2018 05:00:00 20,3 17,6 5 3 SSW 1020,0 10 -
17.09.2018 04:00:00 20,0 18,0 5 3 SSW - 10 -
17.09.2018 03:00:00 20,0 18,0 5 3 SSW - 10 -
17.09.2018 02:00:00 19,9 18,2 5 3 E 1021,0 10 -
17.09.2018 01:00:00 21,0 18,0 9 5 SE - 10 -
17.09.2018 00:00:00 22,0 18,0 5 3 ENE - 10 -
16.09.2018 23:00:00 22,9 18,6 8 4 NE 1021,0 10 -

tt = temperature
td = dewpoint
ff = wind speed
dd = wind direction
ppp = reduced air pressure
vv = visibility
rr = precipitation

Next stations